Location: Wells
(51.2093°N, 2.6446°W)
Time: 07:30:05
(UTC+00:00)

CUBESAT XI-V - Visible Passes

Search period start: 11 March 2026 00:00
Search period end: 21 March 2026 00:00
Orbit: 643 x 664 km, 98.3° (Epoch: 10 March)

Date Brightness Start Highest point End Pass type
(mag) Time Alt. Az. Time Alt. Az. Time Alt. Az.
11 Mar ? 02:05:46 16° NNE 02:05:46 16° NNE 02:06:57 10° N visible
11 Mar ? 03:43:37 13° NNW 03:43:37 13° NNW 03:44:09 10° NNW visible
12 Mar ? 02:33:30 19° N 02:33:30 19° N 02:34:56 10° N visible
12 Mar ? 04:11:21 10° NW 04:11:21 10° NW 04:11:26 10° NW visible
13 Mar ? 01:23:22 12° NE 01:23:22 12° NE 01:24:10 10° NNE visible
13 Mar ? 03:01:13 21° N 03:01:13 21° N 03:02:43 10° N visible
14 Mar ? 01:51:06 17° NNE 01:51:06 17° NNE 01:52:45 10° NNE visible
14 Mar ? 03:28:56 20° NNW 03:28:56 20° NNW 03:30:19 10° NNW visible
15 Mar ? 02:18:48 23° NNE 02:18:48 23° NNE 02:20:52 10° N visible
15 Mar ? 03:56:39 16° NW 03:56:39 16° NW 03:57:44 10° NNW visible
16 Mar ? 02:46:30 28° N 02:46:30 28° N 02:48:43 10° N visible
16 Mar ? 04:24:21 12° NW 04:24:21 12° NW 04:24:50 10° NW visible
17 Mar ? 01:36:21 15° NE 01:36:21 15° NE 01:38:24 10° NNE visible
17 Mar ? 03:14:12 29° NNW 03:14:12 29° NNW 03:16:24 10° NNW visible
18 Mar ? 02:04:02 23° NE 02:04:02 23° NE 02:06:41 10° N visible
18 Mar ? 03:41:53 25° NW 03:41:53 25° NW 03:43:55 10° NNW visible
19 Mar ? 02:31:43 32° NNE 02:31:43 32° NNE 02:34:38 10° N visible
19 Mar ? 04:09:34 19° NW 04:09:34 19° NW 04:11:10 10° NW visible
20 Mar ? 01:21:34 12° ENE 01:21:57 12° NE 01:23:45 10° NNE visible
20 Mar ? 02:59:24 41° N 02:59:24 41° N 03:02:24 10° N visible
20 Mar ? 04:37:15 12° WNW 04:37:15 12° WNW 04:37:59 10° NW visible
